Fort Worth Alliance, TX

9:02 PM CDT on April 25, 2018 (GMT -0500)
Fort Worth Alliance

Weather History for KAFW - January, 2014

Change the Weather History Date:

Monday, January 13, 2014

  Actual Average Record
Temperature  
Mean Temperature 48 °F -  
Max Temperature 61 °F 54 °F 72 °F (2002)
Min Temperature 30 °F 32 °F 19 °F (1997)
Degree Days  
Heating Degree Days 16    
Moisture  
Dew Point 29 °F    
Average Humidity 47    
Maximum Humidity 83    
Minimum Humidity 20    
Precipitation  
Precipitation 0.00 in - - ()
Sea Level Pressure  
Sea Level Pressure 29.98 in    
Wind  
Wind Speed 12 mph (WNW)    
Max Wind Speed 18 mph    
Max Gust Speed 26 mph    
Visibility 10 miles    
Events      
Averages and records for this station are not official NWS values.
T = Trace of Precipitation, MM = Missing Value Source: NWS Daily Summary

Daily Weather History Graph

Daily Weather History Graph

Search for Another Location

Airport or City:

Astronomy

Jan. 13, 2014 Rise Set
Actual Time 7:32 AM CST 5:43 PM CST
Civil Twilight 7:05 AM CST 6:10 PM CST
Nautical Twilight 6:35 AM CST 6:41 PM CST
Astronomical Twilight 6:05 AM CST 7:10 PM CST
Moon 3:58 PM CST (1/13) 5:23 AM CST (1/13)
Length of Visible Light 11h 04m
Length of Day
10h 11m
Waxing Gibbous, 95% of the Moon is Illuminated
Jan 13
Waxing Gibbous
Jan 15
Full
Jan 23
Last Quarter
Jan 30
New
Feb 6
First Quarter

Hourly Weather History & Observations

Time (CST) Temp. Windchill Dew Point Humidity Pressure Visibility Wind Dir Wind Speed Gust Speed Precip Events Conditions
12:53 AM 59.0 °F - 52.0 °F 78% 29.75 in 10.0 mi SSW 15.0 mph 23.0 mph N/A   Mostly Cloudy
1:53 AM 57.0 °F - 52.0 °F 83% 29.78 in 10.0 mi SW 11.5 mph - N/A   Mostly Cloudy
2:53 AM 57.0 °F - 52.0 °F 83% 29.79 in 10.0 mi SW 9.2 mph - N/A   Mostly Cloudy
3:39 AM 55.4 °F - 41.0 °F 58% 29.83 in 10.0 mi NNW 18.4 mph 26.5 mph N/A   Scattered Clouds
3:53 AM 53.1 °F - 36.0 °F 52% 29.83 in 10.0 mi NNW 17.3 mph - N/A   Mostly Cloudy
4:53 AM 50.0 °F - 33.1 °F 52% 29.85 in 10.0 mi NNW 13.8 mph - N/A   Scattered Clouds
5:53 AM 48.9 °F - 32.0 °F 52% 29.90 in 10.0 mi NW 15.0 mph 24.2 mph N/A   Partly Cloudy
6:53 AM 46.9 °F - 30.0 °F 52% 29.93 in 10.0 mi NW 11.5 mph - N/A   Clear
7:53 AM 46.0 °F 41.0 °F 28.9 °F 51% 29.97 in 10.0 mi NW 10.4 mph - N/A   Clear
8:53 AM 48.9 °F - 27.0 °F 43% 30.01 in 10.0 mi NW 15.0 mph - N/A   Clear
9:53 AM 52.0 °F - 26.1 °F 37% 30.05 in 10.0 mi NW 17.3 mph 25.3 mph N/A   Clear
10:53 AM 54.0 °F - 27.0 °F 35% 30.06 in 10.0 mi NW 16.1 mph - N/A   Clear
11:53 AM 54.0 °F - 27.0 °F 35% 30.05 in 10.0 mi NW 15.0 mph 20.7 mph N/A   Clear
12:53 PM 59.0 °F - 26.1 °F 28% 30.02 in 10.0 mi NNW 16.1 mph 26.5 mph N/A   Clear
1:53 PM 60.1 °F - 25.0 °F 26% 30.02 in 10.0 mi NW 13.8 mph 25.3 mph N/A   Clear
2:53 PM 60.1 °F - 21.9 °F 23% 30.03 in 10.0 mi NW 15.0 mph 23.0 mph N/A   Clear
3:53 PM 61.0 °F - 21.0 °F 21% 30.03 in 10.0 mi NW 10.4 mph 18.4 mph N/A   Clear
4:53 PM 59.0 °F - 18.0 °F 20% 30.04 in 10.0 mi WNW 15.0 mph 20.7 mph N/A   Clear
5:53 PM 54.0 °F - 18.0 °F 24% 30.04 in 10.0 mi West 5.8 mph - N/A   Clear
6:53 PM 46.9 °F - 19.9 °F 34% 30.08 in 10.0 mi West 4.6 mph - N/A   Clear
7:53 PM 41.0 °F 37.1 °F 21.9 °F 47% 30.09 in 10.0 mi WSW 5.8 mph - N/A   Clear
8:53 PM 37.9 °F - 23.0 °F 55% 30.08 in 10.0 mi Calm Calm - N/A   Clear
9:53 PM 36.0 °F - 23.0 °F 59% 30.09 in 10.0 mi Calm Calm - N/A   Clear
10:53 PM 37.9 °F - 21.9 °F 53% 30.08 in 10.0 mi Calm Calm - N/A   Clear
11:53 PM 30.0 °F 26.5 °F 23.0 °F 75% 30.08 in 10.0 mi WSW 3.5 mph - N/A   Clear